This demonstration page uses our WeatherBlox Daily Observations layout. Learn more.

40.92945, -100.16068

Hourly Observations for September 29, 2018

Temp ( °F °C ) Dew Point ( °F °C ) Humidity (%) Winds ( mph kmh ) Pressure ( in mb ) Visibility ( mi km ) Precip ( " mm )
12:15 am 00:15 Cloudy 46 7.8 38 3.1 72 72 ESE 6 9 30.33 1027 10 16.0934 0 0
12:35 am 00:35 Cloudy 46 7.9 37 3 71 71 SE 7 11 30.3 1026 10 16.0934 0 0
12:55 am 00:55 Cloudy 46 8 38 3.2 72 72 SE 7 11 30.3 1026 10 16.0934 0 0
1:15 am 01:15 Cloudy 47 8.1 38 3.3 72 72 SE 8 13 30.3 1026 10 16.0934 0 0
1:35 am 01:35 Cloudy 47 8.2 38 3.2 71 71 SE 6 9 30.3 1026 10 16.0934 0 0
1:55 am 01:55 Cloudy 47 8.3 38 3.1 70 70 SSE 9 15 30.27 1025 10 16.0934 0 0
2:15 am 02:15 Cloudy 47 8.3 38 3.5 72 72 SSE 12 19 30.27 1025 10 16.0934 0 0
2:35 am 02:35 Cloudy 47 8.3 38 3.5 72 72 S 10 17 30.27 1025 10 16.0934 0 0
2:55 am 02:55 Cloudy 47 8.1 37 3 71 71 SSE 10 17 30.24 1024 10 16.0934 0 0
3:15 am 03:15 Cloudy 46 8 38 3.1 71 71 SSE 10 17 30.24 1024 10 16.0934 0 0
3:35 am 03:35 Cloudy 46 8 38 3.1 71 71 SSE 9 15 30.24 1024 10 16.0934 0 0
3:55 am 03:55 Cloudy 46 7.8 37 3 72 72 SSE 12 19 30.24 1024 10 16.0934 0 0
4:15 am 04:15 Cloudy 46 7.8 37 3 72 72 SSE 9 15 30.21 1023 10 16.0934 0 0
4:35 am 04:35 Cloudy 46 7.8 36 2.3 68 68 SSE 13 20 30.21 1023 10 16.0934 0 0
4:55 am 04:55 Cloudy 46 7.8 37 2.5 69 69 SSE 9 15 30.21 1023 10 16.0934 0 0
5:15 am 05:15 Cloudy 46 7.7 36 2.4 69 69 SSE 10 17 30.21 1023 10 16.0934 0 0
5:35 am 05:35 Cloudy 46 7.7 36 2.4 69 69 SSE 10 17 30.21 1023 10 16.0934 0 0
5:55 am 05:55 Cloudy 46 7.6 36 2.1 68 68 SSE 13 20 30.18 1022 10 16.0934 0 0
6:15 am 06:15 Cloudy 46 7.6 35 1.7 67 67 SSE 14 22 30.18 1022 10 16.0934 0 0
6:35 am 06:35 Cloudy 46 7.5 35 1.7 67 67 SSE 12 19 30.18 1022 10 16.0934 0 0
6:55 am 06:55 Cloudy 46 7.5 35 1.9 68 68 SSE 10 17 30.18 1022 10 16.0934 0 0
7:15 am 07:15 Cloudy 46 7.5 36 2 68 68 SSE 10 17 30.18 1022 10 16.0934 0 0
7:35 am 07:35 Cloudy 45 7.2 36 2.4 72 72 S 12 19 30.18 1022 10 16.0934 0 0
7:55 am 07:55 Cloudy 44 6.9 37 3 76 76 S 12 19 30.18 1022 10 16.0934 0 0
8:15 am 08:15 Cloudy 44 6.5 38 3.4 81 81 SSE 10 17 30.18 1022 7 11.26538 0 0
8:35 am 08:35 Cloudy 43 6.2 39 3.9 85 85 SSE 9 15 30.18 1022 7 11.26538 0 0
8:55 am 08:55 Cloudy with Mist and Fog 43 6.1 39 4.1 87 87 SSE 9 15 30.15 1021 5 8.0467 0 0
9:15 am 09:15 Cloudy with Mist and Fog 43 6 40 4.6 91 91 SSE 8 13 30.15 1021 2.5 4.02335 0 0
9:35 am 09:35 Cloudy with Mist and Fog 43 6.2 41 5 92 92 SSE 10 17 30.15 1021 2.5 4.02335 0 0
9:55 am 09:55 Cloudy with Mist and Fog 44 6.5 42 5.3 92 92 SSE 12 19 30.15 1021 2.5 4.02335 0 0
10:15 am 10:15 Cloudy with Mist and Fog 44 6.7 42 5.5 92 92 SSE 10 17 30.15 1021 2 3.21868 0 0
10:35 am 10:35 Cloudy 45 7.2 42 5.5 89 89 SSE 12 19 30.12 1020 10 16.0934 0 0
10:55 am 10:55 Cloudy 46 7.6 42 5.5 87 87 SSE 14 22 30.09 1019 7 11.26538 0 0
11:15 am 11:15 Cloudy 46 7.8 42 5.5 86 86 S 14 22 30.09 1019 10 16.0934 0 0
11:35 am 11:35 Cloudy 47 8.2 42 5.7 84 84 SSE 12 19 30.06 1018 10 16.0934 0 0
11:55 am 11:55 Cloudy 47 8.5 43 5.9 84 84 S 15 24 30.06 1018 10 16.0934 0 0
12:15 pm 12:15 Cloudy 47 8.6 43 6 84 84 S 10 17 30.06 1018 10 16.0934 0 0
12:35 pm 12:35 Cloudy 48 8.8 43 6.1 83 83 S 14 22 30.06 1018 10 16.0934 0 0
12:55 pm 12:55 Cloudy 49 9.3 44 6.4 82 82 S 12 19 30.06 1018 10 16.0934 0 0
1:15 pm 13:15 Cloudy 49 9.5 44 6.5 82 82 S 9 15 30.06 1018 10 16.0934 0 0
1:35 pm 13:35 Cloudy 49 9.7 44 6.6 81 81 S 9 15 30.06 1018 10 16.0934 0 0
1:55 pm 13:55 Cloudy 50 10 44 6.8 81 81 S 9 15 30.06 1018 10 16.0934 0 0
2:15 pm 14:15 Cloudy 51 10.3 44 6.9 80 80 SSE 8 13 30.03 1017 10 16.0934 0 0
2:35 pm 14:35 Cloudy 51 10.5 45 7 79 79 SSE 5 7 30.03 1017 10 16.0934 0 0
2:55 pm 14:55 Cloudy 52 11 45 7.2 78 78 S 6 9 30 1016 10 16.0934 0 0
3:15 pm 15:15 Cloudy 52 11.1 45 7.3 78 78 ESE 6 9 30 1016 10 16.0934 0 0
3:35 pm 15:35 Cloudy 53 11.6 46 7.5 76 76 ESE 7 11 30 1016 10 16.0934 0 0
3:55 pm 15:55 Cloudy 53 11.6 46 7.5 76 76 ESE 7 11 30 1016 10 16.0934 0 0
4:15 pm 16:15 Cloudy 54 12 46 7.7 75 75 E 7 11 30 1016 10 16.0934 0 0
4:35 pm 16:35 Cloudy 54 12 46 7.8 76 76 E 9 15 30 1016 10 16.0934 0 0
4:55 pm 16:55 Cloudy 54 12.1 46 7.8 75 75 E 8 13 30 1016 10 16.0934 0 0
5:15 pm 17:15 Cloudy 54 12.1 46 7.9 76 76 E 10 17 30 1016 10 16.0934 0 0
5:35 pm 17:35 Cloudy 54 12.2 46 8 76 76 E 10 17 30 1016 10 16.0934 0 0
5:55 pm 17:55 Cloudy 54 12 46 8 77 77 E 9 15 30 1016 10 16.0934 0 0
6:15 pm 18:15 Cloudy 54 12.1 46 8 76 76 E 9 15 30 1016 10 16.0934 0 0
6:35 pm 18:35 Cloudy 54 12.1 46 8 76 76 E 9 15 30.03 1017 10 16.0934 0 0
6:55 pm 18:55 Cloudy 53 11.8 47 8.1 78 78 E 9 15 30.03 1017 10 16.0934 0 0
7:15 pm 19:15 Cloudy 53 11.5 47 8.1 80 80 E 10 17 30.03 1017 10 16.0934 0 0
7:35 pm 19:35 Cloudy 53 11.4 47 8.2 81 81 E 9 15 30.03 1017 10 16.0934 0 0
7:55 pm 19:55 Cloudy 52 11 47 8.3 84 84 E 9 15 30.03 1017 10 16.0934 0 0
8:15 pm 20:15 Cloudy 52 11 47 8.5 85 85 E 9 15 30.03 1017 10 16.0934 0 0
8:35 pm 20:35 Cloudy 51 10.8 47 8.5 86 86 E 6 9 30.03 1017 10 16.0934 0 0
8:55 pm 20:55 Cloudy 51 10.8 47 8.5 86 86 ENE 7 11 30.06 1018 10 16.0934 0 0
9:15 pm 21:15 Cloudy 51 10.8 47 8.5 86 86 ENE 8 13 30.06 1018 10 16.0934 0 0
9:35 pm 21:35 Cloudy 51 10.7 47 8.5 86 86 ENE 7 11 30.06 1018 10 16.0934 0 0
9:55 pm 21:55 Cloudy 51 10.7 47 8.5 86 86 ENE 7 11 30.06 1018 10 16.0934 0 0
10:15 pm 22:15 Cloudy 51 10.7 48 8.7 88 88 NE 6 9 30.06 1018 10 16.0934 0 0
10:35 pm 22:35 Cloudy 51 10.6 48 8.8 89 89 ENE 6 9 30.06 1018 10 16.0934 0 0
10:55 pm 22:55 Cloudy 51 10.5 48 8.8 89 89 NE 7 11 30.09 1019 10 16.0934 0 0
11:15 pm 23:15 Cloudy 51 10.5 48 8.8 89 89 NE 6 9 30.09 1019 10 16.0934 0 0
11:35 pm 23:35 Cloudy 51 10.5 48 8.7 89 89 ENE 9 15 30.09 1019 10 16.0934 0 0
11:55 pm 23:55 Cloudy 50 10.2 47 8.6 90 90 ENE 7 11 30.09 1019 10 16.0934 0 0

Powered by AerisWeather